Location: Lucerne Valley
(34.4439°N, 116.9669°E)
Time: 03:17:21
(UTC-08:00)

Envisat - Pass Details

Date: 10 October 2017
Orbit: 764 x 766 km, 98.2° (Epoch: 13 December)

Event Time Altitude Azimuth Distance (km) Brightness Sun altitude
Exits shadow 04:46:00 33° 18° (NNE) 1,279 4.0 -25.8°
Drops below altitude 10° 04:48:57 10° 359° (N) 2,307 5.6 -26.4°
Sets 04:51:18 0° 354° (N) 3,238 6.4 -26.9°
